Location: Gleizolles
(44.4833°N, 6.7667°E)
Time: 13:36:03
(UTC+00:00)

Vanguard 1 - Pass Details

Date: 03 July 2024
Orbit: 650 x 3826 km, 34.3° (Epoch: 15 July)

Event Time Altitude Azimuth Distance (km) Brightness Sun altitude
Rises 04:32:28 0° 190° (S) 7,916 14.3 5.1°
Reaches altitude 10° 04:41:35 10° 173° (S) 6,608 14.1 6.6°
Maximum altitude 04:51:48 16° 143° (SE) 5,470 14.1 8.2°
Drops below altitude 10° 05:00:06 10° 112° (ESE) 5,267 14.6 9.6°
Sets 05:05:43 0° 93° (E) 5,681 15.3 10.5°
